{"data":{"norad_id":56747,"intl_designator":"2023-072E","name":"2023-072E","alt_names":[],"object_type":"PAYLOAD","status":"ACTIVE","operator":null,"country":"SKOR","launch_date":"2023-05-25","launch_site_code":"NSC","launch_vehicle":null,"mission":null,"orbit_class":"UNKNOWN","rcs_meters":null,"size_class":null,"mass_kg":null,"dimensions":null,"purposes":[],"wikipedia_slug":null,"has_3d_model":false,"image_url":null,"decayed_at":null,"tle_current":{"epoch":"2026-09-21T22:57:25.048224Z","epoch_age_seconds":70936,"freshness":"FRESH","line1":"1 56747U 23072E   26264.95653991  .00021621  00000+0  35533-3 0  9993","line2":"2 56747  97.4939 118.1276 0002818  26.2481 333.8913 15.52408724185372","mean_motion":15.52408724,"eccentricity":0.0002818,"inclination_deg":97.4939,"raan_deg":118.1276,"arg_perigee_deg":26.2481,"mean_anomaly_deg":333.8913,"bstar":0.00035533,"rev_number":18537,"period_min":92.759076764889,"perigee_km":407.7828134341,"apogee_km":411.60843590136,"semimajor_km":6787.8326246677,"source":"CELESTRAK","updated_at":"2026-09-22T09:00:25.905979Z"}}}